| time (UTC) | temp C | wind direction | speed KPH | gust KPH | rain 1hr cm | rain 24hr cm | rain mn cm | humidity % | barometer mb |
| 20260901060016 | 23 | 0.0 | 0.0 | 0.00 | 0.00 | 0.00 | 89 | 1018.4 | |
| 20260901054516 | 23 | 0.0 | 0.0 | 0.00 | 0.00 | 0.00 | 89 | 1018.6 | |
| 20260901053016 | 23 | 0.0 | 0.0 | 0.00 | 0.00 | 0.00 | 88 | 1018.6 | |
| 20260901051516 | 23 | 0.0 | 0.0 | 0.00 | 0.00 | 0.00 | 88 | 1018.8 | |
| 20260901050015 | 23 | 0.0 | 0.0 | 0.00 | 0.00 | 0.00 | 87 | 1018.9 | |
| 20260901044516 | 23 | 0.0 | 0.0 | 0.00 | 0.00 | 0.00 | 87 | 1019.0 | |
| 20260901043015 | 23 | 0.0 | 0.0 | 0.00 | 0.00 | 0.00 | 86 | 1018.9 | |
| 20260901041515 | 24 | 0.0 | 0.0 | 0.00 | 0.00 | 0.00 | 86 | 1018.9 | |
| 20260901040015 | 24 | 0.0 | 0.0 | 0.00 | 0.00 | 0.00 | 85 | 1018.8 | |
| 20260901034516 | 25 | 0.0 | 1.6 | 0.00 | 0.00 | 0.00 | 85 | 1018.8 | |
| 20260901033016 | 25 | 0.0 | 0.0 | 0.00 | 0.00 | 0.00 | 84 | 1018.8 | |
| 20260901031516 | 25 | 0.0 | 0.0 | 0.00 | 0.00 | 0.00 | 83 | 1018.7 | |
| 20260901030016 | 25 | 0.0 | 0.0 | 0.00 | 0.00 | 0.00 | 82 | 1018.7 | |
| 20260901024516 | 25 | 0.0 | 0.0 | 0.00 | 0.00 | 0.00 | 82 | 1018.7 | |
| 20260901023016 | 26 | 0.0 | 1.6 | 0.00 | 0.00 | 0.00 | 81 | 1018.5 | |
| 20260901021516 | 26 | 0.0 | 1.6 | 0.00 | 0.00 | 0.00 | 80 | 1018.6 | |
| 20260901020016 | 26 | 0.0 | 1.6 | 0.00 | 0.00 | 0.00 | 79 | 1018.8 | |
| 20260901014516 | 26 | 0.0 | 3.2 | 0.00 | 0.00 | 0.00 | 79 | 1018.7 | |
| 20260901013036 | 27 | 0.0 | 4.8 | 0.00 | 0.00 | 0.00 | 78 | 1018.7 | |
| 20260901011516 | 27 | 0.0 | 1.6 | 0.00 | 0.00 | 0.00 | 77 | 1018.6 | |
| 20260901010015 | 27 | 0.0 | 1.6 | 0.00 | 0.00 | 0.00 | 75 | 1018.6 | |
| 20260901004516 | 27 | 0.0 | 1.6 | 0.00 | 0.00 | 0.00 | 74 | 1018.5 | |
| 20260901003036 | 28 | 0.0 | 1.6 | 0.00 | 0.00 | 0.00 | 73 | 1018.6 | |
| 20260901001516 | 28 | 0.0 | 1.6 | 0.00 | 0.00 | 0.00 | 73 | 1018.5 | |
| 20260901000016 | 28 | 0.0 | 1.6 | 0.00 | 0.00 | 0.00 | 72 | 1018.4 | |
| 20260831234536 | 28 | 0.0 | 1.6 | 0.00 | 0.00 | 0.00 | 71 | 1018.2 | |
| 20260831233016 | 29 | 0.0 | 0.0 | 0.00 | 0.00 | 0.00 | 72 | 1018.3 | |
| 20260831231516 | 30 | 0.0 | 0.0 | 0.00 | 0.00 | 0.00 | 70 | 1018.3 | |
| 20260831230016 | 30 | 0.0 | 0.0 | 0.00 | 0.00 | 0.00 | 68 | 1018.2 | |
| 20260831224536 | 30 | 0.0 | 1.6 | 0.00 | 0.00 | 0.00 | 67 | 1018.1 | |
| 20260831223035 | 30 | 0.0 | 1.6 | 0.00 | 0.00 | 0.00 | 65 | 1018.2 | |
| 20260831221516 | 31 | 0.0 | 1.6 | 0.00 | 0.00 | 0.00 | 63 | 1018.3 | |
| 20260831220015 | 31 | 0.0 | 4.8 | 0.00 | 0.00 | 0.00 | 61 | 1018.3 | |
| 20260831214535 | 31 | 270 | 1.6 | 3.2 | 0.00 | 0.00 | 0.00 | 60 | 1018.2 |
| 20260831213015 | 31 | 0.0 | 1.6 | 0.00 | 0.00 | 0.00 | 59 | 1018.1 | |
| 20260831211535 | 31 | 225 | 1.6 | 4.8 | 0.00 | 0.00 | 0.00 | 61 | 1018.0 |
| 20260831210015 | 31 | 293 | 1.6 | 4.8 | 0.00 | 0.00 | 0.00 | 59 | 1018.0 |
| 20260831204515 | 31 | 293 | 1.6 | 4.8 | 0.00 | 0.00 | 0.00 | 60 | 1018.0 |
| 20260831203035 | 31 | 293 | 1.6 | 9.7 | 0.00 | 0.00 | 0.00 | 61 | 1018.1 |
| 20260831201515 | 31 | 315 | 1.6 | 6.4 | 0.00 | 0.00 | 0.00 | 61 | 1018.1 |
| 20260831200015 | 31 | 315 | 1.6 | 6.4 | 0.00 | 0.00 | 0.00 | 60 | 1018.2 |
| 20260831194515 | 31 | 270 | 1.6 | 4.8 | 0.00 | 0.00 | 0.00 | 61 | 1018.3 |
| 20260831193015 | 31 | 293 | 1.6 | 8.0 | 0.00 | 0.00 | 0.00 | 62 | 1018.4 |
| 20260831191517 | 31 | 293 | 1.6 | 8.0 | 0.00 | 0.00 | 0.00 | 63 | 1018.4 |
| 20260831190017 | 31 | 293 | 1.6 | 6.4 | 0.00 | 0.00 | 0.00 | 63 | 1018.7 |
| 20260831184517 | 31 | 315 | 3.2 | 9.7 | 0.00 | 0.00 | 0.00 | 61 | 1018.8 |
| 20260831183017 | 31 | 315 | 1.6 | 6.4 | 0.00 | 0.00 | 0.00 | 63 | 1018.9 |
| 20260831181517 | 31 | 293 | 3.2 | 6.4 | 0.00 | 0.00 | 0.00 | 62 | 1018.9 |
| 20260831180017 | 31 | 0 | 1.6 | 4.8 | 0.00 | 0.00 | 0.00 | 65 | 1019.1 |
| 20260831174517 | 31 | 315 | 1.6 | 6.4 | 0.00 | 0.00 | 0.00 | 65 | 1019.2 |
| 20260831173017 | 30 | 0.0 | 3.2 | 0.00 | 0.00 | 0.00 | 64 | 1019.3 | |
| 20260831171517 | 30 | 293 | 1.6 | 8.0 | 0.00 | 0.00 | 0.00 | 61 | 1019.3 |
| 20260831170017 | 31 | 248 | 1.6 | 4.8 | 0.00 | 0.00 | 0.00 | 65 | 1019.5 |
| 20260831164517 | 31 | 113 | 1.6 | 4.8 | 0.00 | 0.00 | 0.00 | 65 | 1019.5 |
| 20260831163017 | 31 | 315 | 1.6 | 4.8 | 0.00 | 0.00 | 0.00 | 64 | 1019.7 |
| 20260831161517 | 31 | 315 | 1.6 | 4.8 | 0.00 | 0.00 | 0.00 | 64 | 1019.8 |
| 20260831160017 | 31 | 315 | 1.6 | 6.4 | 0.00 | 0.00 | 0.00 | 66 | 1019.9 |
| 20260831154516 | 31 | 203 | 1.6 | 3.2 | 0.00 | 0.00 | 0.00 | 66 | 1019.9 |
| 20260831153037 | 30 | 203 | 1.6 | 4.8 | 0.00 | 0.00 | 0.00 | 69 | 1019.7 |
| 20260831151517 | 28 | 0.0 | 4.8 | 0.00 | 0.00 | 0.00 | 75 | 1019.8 | |
| 20260831150017 | 27 | 0.0 | 3.2 | 0.00 | 0.00 | 0.00 | 77 | 1019.7 | |
| 20260831144517 | 26 | 0.0 | 4.8 | 0.00 | 0.00 | 0.00 | 80 | 1019.8 | |
| 20260831143016 | 26 | 23 | 1.6 | 6.4 | 0.00 | 0.00 | 0.00 | 83 | 1019.9 |
| 20260831141517 | 25 | 315 | 1.6 | 4.8 | 0.00 | 0.00 | 0.00 | 85 | 1020.1 |
| 20260831140017 | 25 | 225 | 1.6 | 6.4 | 0.00 | 0.00 | 0.00 | 86 | 1020.0 |
| 20260831134516 | 24 | 315 | 1.6 | 6.4 | 0.00 | 0.00 | 0.00 | 87 | 1019.9 |
| 20260831133016 | 24 | 45 | 1.6 | 8.0 | 0.00 | 0.00 | 0.00 | 88 | 1020.0 |
| 20260831131516 | 23 | 270 | 1.6 | 8.0 | 0.00 | 0.00 | 0.00 | 91 | 1019.9 |
| 20260831130016 | 23 | 0.0 | 3.2 | 0.00 | 0.00 | 0.00 | 93 | 1019.8 | |
| 20260831124516 | 22 | 0.0 | 3.2 | 0.00 | 0.00 | 0.00 | 94 | 1019.9 | |
| 20260831123016 | 22 | 0.0 | 4.8 | 0.00 | 0.00 | 0.00 | 94 | 1019.8 | |
| 20260831121516 | 22 | 0.0 | 1.6 | 0.00 | 0.00 | 0.00 | 94 | 1019.8 | |
| 20260831120036 | 21 | 0.0 | 0.0 | 0.00 | 0.00 | 0.00 | 93 | 1019.7 | |
| 20260831114516 | 21 | 0.0 | 0.0 | 0.00 | 0.00 | 0.00 | 92 | 1019.5 | |
| 20260831113016 | 21 | 0.0 | 0.0 | 0.00 | 0.00 | 0.00 | 92 | 1019.5 | |
| 20260831111516 | 21 | 0.0 | 0.0 | 0.00 | 0.00 | 0.00 | 92 | 1019.1 | |
| 20260831110016 | 21 | 0.0 | 0.0 | 0.00 | 0.00 | 0.00 | 91 | 1019.2 | |
| 20260831104516 | 22 | 0.0 | 0.0 | 0.00 | 0.00 | 0.00 | 91 | 1019.1 | |
| 20260831103016 | 22 | 0.0 | 0.0 | 0.00 | 0.00 | 0.00 | 91 | 1019.2 | |
| 20260831101516 | 22 | 0.0 | 0.0 | 0.00 | 0.00 | 0.00 | 91 | 1019.1 | |
| 20260831100016 | 22 | 0.0 | 0.0 | 0.00 | 0.00 | 0.00 | 91 | 1018.8 | |
| 20260831094516 | 22 | 0.0 | 0.0 | 0.00 | 0.00 | 0.00 | 90 | 1018.8 | |
| 20260831093016 | 22 | 0.0 | 0.0 | 0.00 | 0.00 | 0.00 | 90 | 1018.7 | |
| 20260831091516 | 22 | 0.0 | 0.0 | 0.00 | 0.00 | 0.00 | 90 | 1018.8 | |
| 20260831090036 | 22 | 0.0 | 0.0 | 0.00 | 0.00 | 0.00 | 90 | 1018.8 | |
| 20260831084516 | 22 | 0.0 | 0.0 | 0.00 | 0.00 | 0.00 | 90 | 1018.9 | |
| 20260831083016 | 22 | 0.0 | 0.0 | 0.00 | 0.00 | 0.00 | 90 | 1018.9 | |
| 20260831081516 | 22 | 0.0 | 0.0 | 0.00 | 0.00 | 0.00 | 90 | 1018.8 | |
| 20260831080016 | 22 | 0.0 | 0.0 | 0.00 | 0.00 | 0.00 | 90 | 1018.7 | |
| 20260831074536 | 22 | 0.0 | 0.0 | 0.00 | 0.00 | 0.00 | 90 | 1018.7 | |
| 20260831073015 | 22 | 0.0 | 0.0 | 0.00 | 0.00 | 0.00 | 89 | 1018.6 | |
| 20260831071535 | 22 | 0.0 | 0.0 | 0.00 | 0.00 | 0.00 | 89 | 1018.7 | |
| 20260831070016 | 22 | 0.0 | 0.0 | 0.00 | 0.00 | 0.00 | 89 | 1018.9 | |
| 20260831064516 | 22 | 0.0 | 0.0 | 0.00 | 0.00 | 0.00 | 89 | 1018.8 | |
| 20260831063016 | 23 | 0.0 | 0.0 | 0.00 | 0.00 | 0.00 | 89 | 1018.9 | |
| 20260831061536 | 23 | 0.0 | 0.0 | 0.00 | 0.00 | 0.00 | 89 | 1019.0 |